PBO Station Position Time Series. Reference Frame : NAM14
Format Version,1.1.0
4-character ID,P711
Station name,YNPMadisonWY2005
Begin Date, 2005-09-30
End Date, 2019-10-07
Release Date, 2019-10-08
Reference position, 44.6355647934 North Latitude, -110.8610667336 East Longitude, 2118.70115 meters elevation,
Date, North (mm), East (mm), Vertical (mm), North Std. Deviation (mm), East Std. Deviation (mm),              Vertical Std. Deviation (mm), Quality,
2005-09-30,0.00, 0.00, 0.00, 2.23, 1.60, 7.17, repro,
2005-10-01,-1.18, -0.00, 2.50, 2.21, 1.58, 7.10, repro,
2005-10-02,-0.65, -1.04, -1.51, 2.27, 1.64, 7.39, repro,
2005-10-03,0.11, -0.23, -4.67, 2.25, 1.63, 7.27, repro,
2005-10-04,-0.31, 0.39, -8.47, 2.26, 1.59, 7.16, repro,
2005-10-05,0.20, 0.34, -12.32, 2.28, 1.59, 7.30, repro,
2005-10-06,-0.17, 0.27, -5.16, 2.22, 1.58, 7.07, repro,
2005-10-07,-2.15, 0.98, 0.58, 2.24, 1.59, 7.18, repro,
2005-10-08,0.58, 0.86, 3.11, 2.22, 1.58, 7.10, repro,
2005-10-09,-0.67, 0.09, -3.63, 2.21, 1.57, 7.02, repro,
2005-10-10,-0.18, 0.47, -5.48, 2.21, 1.57, 7.02, repro,
2005-10-11,-0.24, 0.37, -5.83, 2.25, 1.61, 7.22, repro,
2005-10-12,-0.91, 0.96, -6.20, 2.25, 1.62, 7.24, repro,
2005-10-13,-0.78, 0.24, -6.64, 2.26, 1.62, 7.27, repro,
2005-10-14,-0.39, 1.34, -5.55, 2.25, 1.63, 7.28, repro,
2005-10-15,0.55, 1.83, -1.86, 2.24, 1.62, 7.23, repro,
2005-10-16,-1.60, -0.08, -5.88, 2.23, 1.61, 7.17, repro,
2005-10-17,1.16, 0.62, -2.60, 2.25, 1.62, 7.25, repro,
2005-10-18,0.49, 1.79, -2.38, 2.40, 1.73, 7.81, repro,
2005-10-19,-0.23, 0.77, 0.21, 2.34, 1.65, 7.53, repro,
2005-10-20,0.55, 0.29, -0.97, 2.33, 1.60, 7.30, repro,
2005-10-21,-0.93, 0.90, -5.06, 2.34, 1.69, 7.60, repro,
2005-10-22,-0.60, 1.23, -9.73, 2.22, 1.58, 7.10, repro,
2005-10-23,-0.14, 1.82, -7.16, 2.31, 1.70, 7.51, repro,
2005-10-24,-0.39, 1.91, -10.30, 2.30, 1.71, 7.52, repro,
2005-10-25,0.05, 0.61, -3.12, 2.28, 1.66, 7.36, repro,
2005-10-26,-0.23, 2.07, -3.59, 2.30, 1.68, 7.41, repro,
2005-10-27,-1.00, 1.18, -3.95, 2.27, 1.66, 7.38, repro,
2005-10-28,-1.53, 1.69, -1.94, 2.22, 1.58, 7.08, repro,
2005-10-29,-0.21, 2.14, -2.41, 2.21, 1.59, 7.06, repro,
2005-10-30,-0.31, 0.25, -10.54, 2.25, 1.63, 7.21, repro,
2005-10-31,1.52, 1.24, -15.21, 2.33, 1.68, 7.41, repro,
2005-11-01,0.02, -0.08, -2.31, 2.38, 1.76, 7.70, repro,
2005-11-02,-1.70, 2.63, -6.85, 2.31, 1.76, 7.50, repro,
2005-11-03,0.19, 1.63, -1.74, 2.25, 1.66, 7.19, repro,
2005-11-04,1.15, 1.98, 1.84, 2.31, 1.76, 7.52, repro,
2005-11-05,0.18, 1.97, -15.35, 2.34, 1.77, 7.61, repro,
2005-11-06,1.17, 2.16, -8.39, 2.35, 1.75, 7.53, repro,
2005-11-07,-0.08, 2.96, -1.91, 2.36, 1.76, 7.55, repro,
2005-11-08,1.56, 3.50, -4.04, 2.32, 1.72, 7.46, repro,
2005-11-09,1.68, 1.63, -12.51, 2.39, 1.83, 7.82, repro,
2005-11-10,0.32, 1.27, -7.38, 2.40, 1.80, 7.81, repro,
2005-11-11,1.30, 2.03, -7.95, 2.27, 1.70, 7.37, repro,
2005-11-12,0.38, 1.85, -4.79, 2.26, 1.68, 7.22, repro,
2005-11-13,0.75, 1.81, -3.47, 2.29, 1.72, 7.45, repro,
2005-11-14,-0.40, 2.23, -5.20, 2.29, 1.70, 7.41, repro,
2005-11-15,2.75, 1.85, -19.90, 2.24, 1.64, 7.21, repro,
2005-11-16,1.65, 0.84, -22.98, 2.31, 1.74, 7.61, repro,
2005-11-17,1.05, 1.20, -23.63, 2.20, 1.59, 7.02, repro,
2005-11-18,-0.14, 1.91, -12.30, 2.26, 1.63, 7.22, repro,
2005-11-19,1.09, 1.16, -15.69, 2.21, 1.59, 7.12, repro,
2005-11-20,1.62, 2.28, -18.92, 2.26, 1.68, 7.38, repro,
2005-11-21,1.06, 3.03, -18.72, 2.32, 1.64, 7.51, repro,
2005-11-22,1.48, 3.07, -15.03, 2.29, 1.68, 7.45, repro,
2005-11-23,0.22, 1.50, -14.43, 2.26, 1.65, 7.32, repro,
2005-11-24,0.52, 1.77, -9.10, 2.26, 1.66, 7.35, repro,
2005-11-25,1.32, 2.42, -9.27, 2.31, 1.66, 7.39, repro,
2005-11-26,1.40, 2.37, -10.23, 2.31, 1.71, 7.55, repro,
2005-11-27,2.79, 1.92, -12.80, 2.23, 1.61, 7.17, repro,
2005-11-28,2.30, 1.29, -14.02, 2.27, 1.63, 7.31, repro,
2005-11-29,0.87, 0.68, -7.44, 2.28, 1.63, 7.32, repro,
2005-11-30,1.11, 0.61, -14.38, 2.24, 1.60, 7.15, repro,
2005-12-01,0.63, -0.28, -11.33, 2.24, 1.59, 7.17, repro,
2005-12-02,0.36, 2.99, -11.43, 2.25, 1.60, 7.19, repro,
2005-12-03,0.82, 2.40, -10.16, 2.24, 1.59, 7.17, repro,
2005-12-04,0.92, 2.47, -16.93, 2.28, 1.63, 7.30, repro,
2005-12-05,0.70, 1.12, -23.85, 2.24, 1.58, 7.10, repro,
2005-12-06,0.29, 1.90, -21.76, 2.20, 1.57, 7.04, repro,
2005-12-07,-1.74, 1.06, -17.87, 2.28, 1.64, 7.33, repro,
2005-12-08,-2.33, 1.24, -17.95, 2.30, 1.64, 7.37, repro,
2005-12-09,-0.31, 1.13, -19.26, 2.24, 1.58, 7.16, repro,
2005-12-10,-0.07, 1.67, -14.26, 2.23, 1.58, 7.13, repro,
2005-12-11,-0.57, 2.40, -10.95, 2.24, 1.59, 7.13, repro,
2005-12-12,0.17, 2.97, -9.39, 2.24, 1.59, 7.11, repro,
2005-12-13,1.09, 2.13, -9.10, 2.21, 1.58, 7.12, repro,
2005-12-14,0.45, 1.29, -20.97, 2.25, 1.59, 7.15, repro,
2005-12-15,0.11, 1.90, -21.58, 2.31, 1.62, 7.31, repro,
2005-12-16,1.22, 2.51, -12.10, 2.21, 1.56, 7.05, repro,
2005-12-17,0.91, 1.89, -14.67, 2.32, 1.65, 7.40, repro,
2005-12-18,-0.20, 1.32, -18.64, 2.26, 1.67, 7.26, repro,
2005-12-19,-0.13, 1.70, -20.09, 2.34, 1.69, 7.48, repro,
2005-12-20,-0.05, 0.43, -22.24, 2.28, 1.67, 7.32, repro,
2005-12-21,-1.02, 2.89, -17.99, 2.28, 1.68, 7.37, repro,
2005-12-22,-0.72, 2.87, -8.31, 2.29, 1.67, 7.30, repro,
2005-12-23,-2.01, 1.10, -8.41, 2.30, 1.65, 7.24, repro,
2005-12-24,0.03, 2.35, -16.94, 2.31, 1.64, 7.32, repro,
2005-12-25,-0.72, 3.20, -12.09, 2.35, 1.70, 7.52, repro,
2005-12-26,0.36, 3.73, -9.67, 2.31, 1.62, 7.35, repro,
2005-12-27,-0.23, 3.06, -10.67, 2.36, 1.70, 7.49, repro,
2005-12-28,-2.15, 2.45, -14.31, 2.30, 1.63, 7.30, repro,
2005-12-29,1.32, 3.78, -9.54, 2.44, 1.69, 7.81, repro,
2005-12-30,0.22, 3.51, -8.12, 2.42, 1.71, 7.77, repro,
2005-12-31,0.33, 4.34, -6.00, 2.43, 1.70, 7.84, repro,
2006-01-01,-0.96, 3.24, -11.49, 2.44, 1.69, 7.76, repro,
2006-01-02,-0.38, 3.97, -9.15, 2.29, 1.64, 7.26, repro,
2006-01-03,0.99, 3.14, -14.21, 2.63, 1.87, 8.53, repro,
2006-01-04,-0.59, 2.38, -21.06, 2.42, 1.75, 7.71, repro,
2006-01-05,0.57, 3.11, -27.08, 2.36, 1.68, 7.58, repro,
2006-01-06,-0.51, 2.91, -22.25, 2.43, 1.71, 7.80, repro,
2006-01-07,0.41, 3.78, -6.89, 2.37, 1.71, 7.53, repro,
2006-01-08,0.72, 1.72, -12.74, 2.34, 1.68, 7.49, repro,
2006-01-09,-0.71, 2.73, -20.73, 2.38, 1.76, 7.70, repro,
2006-01-10,-0.81, 3.66, -19.00, 2.35, 1.69, 7.52, repro,
2006-01-11,0.84, 3.37, -12.40, 2.37, 1.67, 7.53, repro,
2006-01-12,0.72, 3.64, -14.37, 2.34, 1.70, 7.47, repro,
2006-01-13,0.30, 3.61, -21.63, 2.41, 1.70, 7.70, repro,
2006-01-14,0.51, 5.39, -14.28, 2.27, 1.60, 7.17, repro,
2006-01-15,1.50, 4.05, -10.51, 2.24, 1.60, 7.13, repro,
2006-01-16,1.35, 3.46, -15.05, 2.34, 1.71, 7.47, repro,
2006-01-17,0.08, 2.67, -15.11, 2.34, 1.67, 7.35, repro,
2006-01-18,-0.54, 3.69, -10.43, 2.24, 1.58, 7.08, repro,
2006-01-19,0.20, 3.94, -16.39, 2.28, 1.62, 7.30, repro,
2006-01-20,-0.72, 4.60, -17.32, 2.29, 1.62, 7.33, repro,
2006-01-21,-0.72, 3.94, -20.11, 2.23, 1.57, 7.06, repro,
2006-01-22,0.26, 4.33, -22.29, 2.22, 1.56, 7.00, repro,
2006-01-23,-0.59, 3.76, -14.72, 2.22, 1.55, 6.94, repro,
2006-01-24,0.16, 3.80, -23.07, 2.27, 1.62, 7.25, repro,
2006-01-25,-0.45, 4.76, -21.47, 2.17, 1.56, 6.97, repro,
2006-01-26,-1.02, 4.76, -16.43, 2.18, 1.55, 6.98, repro,
2006-01-27,0.42, 5.08, -20.55, 2.17, 1.54, 6.90, repro,
2006-01-28,0.00, 3.42, -22.05, 2.16, 1.54, 6.87, repro,
2006-01-29,0.45, 3.19, -21.26, 2.16, 1.53, 6.88, repro,
2006-01-30,0.09, 4.68, -21.08, 2.17, 1.54, 6.94, repro,
2006-01-31,-0.46, 4.14, -17.64, 2.20, 1.55, 7.05, repro,
2006-02-01,-0.48, 5.20, -15.04, 2.17, 1.54, 6.96, repro,
2006-02-02,0.92, 4.66, -12.70, 2.16, 1.54, 6.94, repro,
2006-02-03,-0.84, 5.39, -17.89, 2.16, 1.53, 6.91, repro,
2006-02-04,0.54, 5.59, -18.12, 2.17, 1.52, 6.92, repro,
2006-02-05,1.48, 5.14, -19.52, 2.18, 1.54, 6.99, repro,
2006-02-06,0.24, 5.03, -28.10, 2.20, 1.54, 7.05, repro,
2006-02-07,1.00, 5.35, -30.18, 2.19, 1.55, 7.05, repro,
2006-02-08,1.45, 5.71, -30.83, 2.18, 1.55, 7.03, repro,
2006-02-09,1.35, 4.67, -24.26, 2.24, 1.57, 7.11, repro,
2006-02-10,3.98, 5.46, -30.37, 2.32, 1.58, 7.20, repro,
2006-02-11,2.49, 5.64, -31.96, 2.18, 1.55, 7.03, repro,
2006-02-12,1.84, 5.15, -30.25, 2.19, 1.56, 7.12, repro,
2006-02-13,1.12, 5.33, -23.35, 2.19, 1.55, 7.08, repro,
2006-02-14,1.77, 5.32, -21.12, 2.16, 1.55, 6.99, repro,
2006-02-15,3.03, 5.48, -21.97, 2.17, 1.55, 7.01, repro,
2006-02-16,2.60, 6.13, -24.88, 2.18, 1.55, 7.00, repro,
2006-02-17,3.04, 6.56, -29.11, 2.19, 1.56, 7.04, repro,
2006-02-18,2.67, 6.35, -25.47, 2.17, 1.55, 6.97, repro,
2006-02-19,2.41, 5.59, -21.92, 2.17, 1.56, 7.03, repro,
2006-02-20,2.22, 5.90, -19.99, 2.16, 1.57, 6.99, repro,
2006-02-21,0.38, 5.81, -20.42, 2.16, 1.57, 6.98, repro,
2006-02-22,0.10, 5.17, -13.62, 2.18, 1.57, 7.02, repro,
2006-02-23,0.66, 5.78, -20.84, 2.17, 1.56, 6.99, repro,
2006-02-24,1.28, 7.08, -25.26, 2.16, 1.56, 6.95, repro,
2006-02-25,1.52, 7.00, -30.66, 2.15, 1.56, 6.99, repro,
2006-02-26,1.33, 6.51, -27.50, 2.13, 1.56, 6.94, repro,
2006-02-27,2.72, 7.56, -17.68, 2.16, 1.57, 7.00, repro,
2006-02-28,1.74, 7.79, -15.43, 2.21, 1.60, 7.15, repro,
2006-03-01,1.59, 5.13, -25.58, 2.24, 1.63, 7.23, repro,
2006-03-02,2.30, 6.14, -28.15, 2.15, 1.56, 6.94, repro,
2006-03-03,3.93, 6.52, -25.66, 2.24, 1.60, 7.21, repro,
2006-03-04,2.94, 6.99, -22.46, 2.14, 1.57, 6.96, repro,
2006-03-05,3.02, 7.18, -20.21, 2.16, 1.56, 6.95, repro,
2006-03-06,2.43, 6.55, -26.13, 2.15, 1.57, 6.96, repro,
2006-03-07,1.71, 6.79, -20.48, 2.14, 1.56, 6.93, repro,
2006-03-08,1.53, 6.08, -15.93, 2.13, 1.56, 6.93, repro,
2006-03-09,2.07, 5.11, -13.34, 2.13, 1.56, 6.96, repro,
2006-03-10,2.22, 5.54, -13.55, 2.15, 1.58, 7.03, repro,
2006-03-11,3.13, 6.19, -18.35, 2.19, 1.59, 7.13, repro,
2006-03-12,3.11, 6.30, -21.03, 2.19, 1.60, 7.19, repro,
2006-03-13,1.85, 6.49, -22.33, 2.18, 1.60, 7.15, repro,
2006-03-14,2.79, 7.32, -22.95, 2.19, 1.61, 7.20, repro,
2006-03-15,3.93, 6.57, -28.62, 2.20, 1.61, 7.23, repro,
2006-03-16,2.58, 7.14, -34.64, 2.26, 1.63, 7.40, repro,
2006-03-17,2.92, 7.16, -26.46, 2.25, 1.63, 7.35, repro,
2006-03-18,3.01, 7.48, -27.07, 2.18, 1.60, 7.15, repro,
2006-03-19,4.59, 7.93, -25.31, 2.20, 1.62, 7.25, repro,
2006-03-20,3.67, 7.85, -27.01, 2.19, 1.60, 7.15, repro,
2006-03-21,2.90, 7.81, -21.69, 2.24, 1.68, 7.42, repro,
2006-03-22,2.92, 6.84, -28.87, 2.20, 1.63, 7.25, repro,
2006-03-23,2.60, 7.53, -33.60, 2.26, 1.62, 7.26, repro,
2006-03-24,2.61, 7.90, -27.40, 2.27, 1.64, 7.37, repro,
2006-03-25,3.19, 8.61, -22.35, 2.27, 1.63, 7.34, repro,
2006-03-26,2.98, 7.88, -15.30, 2.25, 1.63, 7.30, repro,
2006-03-27,2.07, 6.17, -24.04, 2.27, 1.63, 7.37, repro,
2006-03-28,2.63, 7.94, -24.95, 2.18, 1.59, 7.11, repro,
2006-03-29,2.10, 7.70, -16.22, 2.16, 1.61, 7.12, repro,
2006-03-30,3.10, 7.48, -23.15, 2.13, 1.57, 6.99, repro,
2006-03-31,2.31, 7.46, -22.05, 2.12, 1.57, 6.93, repro,
2006-04-01,2.38, 8.38, -19.76, 2.14, 1.57, 7.02, repro,
2006-04-02,3.03, 7.66, -27.20, 2.14, 1.57, 7.02, repro,
2006-04-03,2.84, 8.29, -26.67, 2.11, 1.56, 6.93, repro,
2006-04-04,3.84, 8.08, -23.05, 2.13, 1.56, 7.00, repro,
2006-04-05,1.79, 7.96, -18.81, 2.16, 1.61, 7.16, repro,
2006-04-06,3.24, 7.88, -21.78, 2.16, 1.61, 7.23, repro,
2006-04-07,3.61, 7.65, -27.11, 2.25, 1.67, 7.54, repro,
2006-04-08,1.88, 7.14, -23.12, 2.19, 1.57, 7.05, repro,
2006-04-09,3.22, 7.59, -23.86, 2.12, 1.55, 6.97, repro,
2006-04-10,1.04, 5.98, -21.94, 2.12, 1.56, 7.02, repro,
2006-04-11,1.05, 7.36, -20.00, 2.20, 1.58, 7.26, repro,
2006-04-12,1.26, 8.73, -20.23, 2.19, 1.58, 7.20, repro,
2006-04-13,3.20, 7.49, -28.70, 2.11, 1.55, 6.97, repro,
2006-04-14,2.49, 8.58, -18.33, 2.11, 1.55, 6.96, repro,
2006-04-15,3.22, 7.91, -11.16, 2.17, 1.59, 7.14, repro,
2006-04-16,3.15, 8.09, -15.25, 2.12, 1.56, 7.05, repro,
2006-04-17,1.74, 7.37, -18.20, 2.11, 1.56, 6.99, repro,
2006-04-18,3.71, 6.65, -28.01, 2.15, 1.59, 7.15, repro,
2006-04-19,3.39, 8.13, -28.72, 2.12, 1.56, 6.95, repro,
2006-04-20,2.58, 7.44, -25.31, 2.17, 1.58, 7.10, repro,
2006-04-21,2.92, 7.54, -24.77, 2.16, 1.57, 7.12, repro,
2006-04-22,4.35, 7.80, -26.43, 2.13, 1.56, 7.04, repro,
2006-04-23,3.44, 8.23, -26.20, 2.16, 1.61, 7.15, repro,
2006-04-24,3.41, 9.20, -25.52, 2.15, 1.60, 7.13, repro,
2006-04-25,2.85, 8.27, -23.84, 2.15, 1.60, 7.11, repro,
2006-04-26,2.74, 8.42, -25.84, 2.18, 1.61, 7.17, repro,
2006-04-27,3.07, 8.60, -28.90, 2.24, 1.65, 7.36, repro,
2006-04-28,4.31, 8.93, -29.25, 2.18, 1.58, 7.12, repro,
2006-04-29,2.99, 8.98, -30.75, 2.12, 1.55, 6.94, repro,
2006-04-30,2.81, 9.15, -24.94, 2.13, 1.57, 7.02, repro,
2006-05-01,2.96, 8.62, -28.85, 2.12, 1.55, 6.99, repro,
2006-05-02,2.91, 7.82, -28.60, 2.14, 1.56, 7.02, repro,
2006-05-03,2.52, 8.09, -24.71, 2.13, 1.56, 7.04, repro,
2006-05-04,2.80, 8.71, -26.94, 2.13, 1.56, 7.00, repro,
2006-05-05,2.72, 8.84, -25.70, 2.13, 1.56, 6.99, repro,
2006-05-06,2.42, 9.77, -21.05, 2.12, 1.55, 6.97, repro,
2006-05-07,3.08, 9.02, -21.60, 2.14, 1.56, 7.01, repro,
2006-05-08,4.57, 8.66, -22.17, 2.13, 1.55, 6.99, repro,
2006-05-09,4.10, 8.18, -28.97, 2.22, 1.58, 7.20, repro,
2006-05-10,3.54, 8.39, -26.20, 2.13, 1.55, 7.01, repro,
2006-05-11,3.19, 8.93, -25.68, 2.12, 1.55, 7.00, repro,
2006-05-12,2.61, 8.54, -22.48, 2.13, 1.55, 6.97, repro,
2006-05-13,2.48, 8.18, -23.34, 2.11, 1.55, 6.94, repro,
2006-05-14,2.58, 9.79, -29.30, 2.13, 1.55, 6.99, repro,
2006-05-15,3.26, 9.92, -31.82, 2.15, 1.56, 7.06, repro,
2006-05-16,2.02, 8.92, -28.28, 2.18, 1.59, 7.25, repro,
2006-05-17,3.23, 8.80, -19.69, 2.18, 1.59, 7.24, repro,
2006-05-18,1.55, 8.73, -15.00, 2.16, 1.56, 7.07, repro,
2006-05-19,2.12, 10.43, -21.02, 2.28, 1.59, 7.34, repro,
2006-05-20,3.44, 9.56, -22.50, 2.22, 1.58, 7.25, repro,
2006-05-21,3.24, 9.56, -19.97, 2.22, 1.57, 7.23, repro,
2006-05-22,2.13, 8.75, -19.30, 2.25, 1.61, 7.42, repro,
2006-05-23,1.77, 9.54, -22.23, 2.21, 1.56, 7.18, repro,
2006-05-24,2.52, 10.22, -20.39, 2.19, 1.57, 7.15, repro,
2006-05-25,2.79, 10.32, -25.88, 2.34, 1.62, 7.64, repro,
2006-05-26,2.06, 8.52, -13.39, 2.30, 1.59, 7.46, repro,
2006-05-27,2.38, 10.17, -13.36, 2.22, 1.57, 7.22, repro,
2006-05-28,1.96, 9.83, -19.27, 2.22, 1.58, 7.20, repro,
2006-05-29,1.18, 11.25, -26.58, 2.20, 1.57, 7.17, repro,
2006-05-30,4.34, 10.05, -21.82, 2.26, 1.60, 7.35, repro,
2006-05-31,3.40, 10.62, -27.90, 2.21, 1.58, 7.17, repro,
2006-06-01,2.39, 9.14, -29.30, 2.27, 1.60, 7.29, repro,
2006-06-02,4.18, 9.16, -27.53, 2.27, 1.61, 7.39, repro,
2006-06-03,3.27, 10.01, -20.34, 2.28, 1.62, 7.45, repro,
2006-06-04,3.01, 10.33, -23.10, 2.27, 1.63, 7.43, repro,
2006-06-05,3.75, 12.53, -25.30, 2.25, 1.62, 7.35, repro,
2006-06-06,3.79, 10.96, -23.09, 2.25, 1.59, 7.26, repro,
2006-06-07,3.28, 9.01, -26.80, 2.27, 1.61, 7.38, repro,
2006-06-08,2.58, 10.22, -23.50, 2.29, 1.65, 7.56, repro,
2006-06-09,2.84, 9.74, -16.88, 2.24, 1.59, 7.26, repro,
2006-06-10,3.75, 9.30, -23.65, 2.21, 1.57, 7.14, repro,
2006-06-11,3.11, 9.68, -22.98, 2.27, 1.60, 7.25, repro,
2006-06-12,2.18, 11.13, -16.15, 2.32, 1.65, 7.51, repro,
2006-06-13,3.02, 10.34, -21.57, 2.27, 1.60, 7.36, repro,
2006-06-14,2.91, 10.21, -21.77, 2.24, 1.59, 7.26, repro,
2006-06-15,2.56, 10.95, -15.86, 2.21, 1.57, 7.18, repro,
2006-06-16,2.01, 10.58, -18.16, 2.19, 1.56, 7.13, repro,
2006-06-17,2.69, 11.47, -21.68, 2.19, 1.57, 7.15, repro,
2006-06-18,2.93, 9.34, -17.18, 2.25, 1.61, 7.36, repro,
2006-06-19,2.63, 10.62, -25.13, 2.26, 1.63, 7.44, repro,
2006-06-20,3.26, 11.26, -19.09, 2.26, 1.62, 7.42, repro,
2006-06-21,3.50, 11.05, -20.91, 2.25, 1.62, 7.46, repro,
2006-06-22,3.30, 9.89, -21.73, 2.25, 1.62, 7.41, repro,
2006-06-23,2.81, 10.04, -29.10, 2.26, 1.62, 7.43, repro,
2006-06-24,2.69, 10.09, -28.43, 2.26, 1.63, 7.49, repro,
2006-06-25,1.67, 10.35, -31.85, 2.26, 1.61, 7.39, repro,
2006-06-26,3.39, 10.92, -28.58, 2.26, 1.62, 7.43, repro,
2006-06-27,2.29, 12.45, -20.16, 2.25, 1.63, 7.41, repro,
2006-06-28,3.33, 10.34, -21.94, 2.25, 1.63, 7.50, repro,
2006-06-29,3.20, 9.94, -20.92, 2.17, 1.60, 7.21, repro,
2006-06-30,2.14, 10.65, -19.45, 2.22, 1.59, 7.33, repro,
2006-07-01,5.79, 10.67, -29.77, 2.21, 1.58, 7.28, repro,
2006-07-03,2.48, 12.28, -27.91, 2.23, 1.60, 7.41, repro,
2006-07-04,2.55, 12.51, -26.76, 2.21, 1.59, 7.33, repro,
2006-07-05,3.75, 11.83, -21.87, 2.19, 1.57, 7.23, repro,
2006-07-06,6.33, 11.28, -30.96, 2.20, 1.57, 7.22, repro,
2006-07-07,2.85, 11.65, -29.35, 2.22, 1.59, 7.31, repro,
2006-07-08,2.06, 11.48, -26.27, 2.25, 1.64, 7.41, repro,
2006-07-09,3.27, 12.82, -27.55, 2.21, 1.58, 7.28, repro,
2006-07-10,3.78, 11.71, -24.88, 2.21, 1.58, 7.28, repro,
2006-07-11,1.96, 11.70, -20.34, 2.23, 1.58, 7.33, repro,
2006-07-12,2.48, 12.09, -22.30, 2.22, 1.58, 7.29, repro,
2006-07-13,1.44, 12.22, -18.04, 2.22, 1.58, 7.33, repro,
2006-07-14,0.89, 12.62, -22.83, 2.23, 1.59, 7.38, repro,
2006-07-15,3.69, 12.29, -21.54, 2.21, 1.58, 7.32, repro,
2006-07-16,3.70, 11.09, -29.17, 2.21, 1.58, 7.29, repro,
2006-07-17,0.77, 12.92, -26.62, 2.28, 1.64, 7.61, repro,
2006-07-18,2.78, 12.75, -17.61, 2.16, 1.57, 7.11, repro,
2006-07-19,2.89, 13.06, -18.73, 2.15, 1.56, 7.07, repro,
2006-07-20,2.76, 11.82, -25.35, 2.15, 1.57, 7.06, repro,
2006-07-21,3.63, 12.72, -27.74, 2.14, 1.56, 7.04, repro,
2006-07-22,2.67, 13.27, -22.49, 2.14, 1.56, 7.00, repro,
2006-07-23,3.54, 13.82, -19.13, 2.15, 1.57, 7.04, repro,
2006-07-24,2.84, 13.74, -22.08, 2.15, 1.56, 7.07, repro,
2006-07-25,1.82, 11.99, -21.05, 2.15, 1.57, 7.08, repro,
2006-07-26,2.07, 11.33, -19.36, 2.16, 1.58, 7.12, repro,
2006-07-27,2.87, 12.60, -18.44, 2.13, 1.57, 7.03, repro,
2006-07-28,4.10, 13.97, -13.88, 2.14, 1.57, 7.03, repro,
2006-07-29,2.66, 12.51, -11.89, 2.14, 1.57, 7.05, repro,
2006-07-30,3.89, 15.63, -7.61, 2.14, 1.56, 7.05, repro,
2006-07-31,4.09, 14.56, -15.73, 2.15, 1.57, 7.06, repro,
2006-08-01,4.18, 12.73, -23.67, 2.14, 1.56, 7.03, repro,
2006-08-02,2.69, 12.92, -16.75, 2.17, 1.60, 7.22, repro,
2006-08-03,3.02, 14.89, -23.28, 2.18, 1.59, 7.16, repro,
2006-08-04,3.80, 14.34, -9.88, 2.26, 1.62, 7.42, repro,
2006-08-05,5.32, 12.33, -29.64, 2.22, 1.65, 7.36, repro,
2006-08-06,3.33, 13.42, -18.84, 2.19, 1.62, 7.27, repro,
2006-08-07,3.02, 14.25, -12.75, 2.19, 1.62, 7.29, repro,
2006-08-08,4.13, 14.58, -24.28, 2.16, 1.57, 7.07, repro,
2006-08-09,3.41, 13.34, -19.78, 2.16, 1.57, 7.09, repro,
2006-08-10,5.32, 13.54, -16.36, 2.15, 1.56, 7.03, repro,
2006-08-11,4.02, 12.83, -16.84, 2.15, 1.58, 7.10, repro,
2006-08-12,3.94, 13.08, -14.21, 2.15, 1.57, 7.06, repro,
2006-08-13,5.28, 13.37, -20.07, 2.15, 1.58, 7.08, repro,
2006-08-14,3.58, 14.46, -16.79, 2.18, 1.61, 7.15, repro,
2006-08-15,4.42, 14.72, -15.45, 2.22, 1.59, 7.13, repro,
2006-08-16,5.75, 13.09, -27.08, 2.16, 1.58, 7.15, repro,
2006-08-17,5.60, 13.06, -12.12, 2.15, 1.56, 7.05, repro,
2006-08-18,4.37, 13.89, -20.66, 2.21, 1.67, 7.30, repro,
2006-08-19,4.85, 13.71, -21.80, 2.14, 1.57, 7.04, repro,
2006-08-20,4.70, 13.71, -15.13, 2.14, 1.56, 7.01, repro,
2006-08-21,5.00, 12.91, -24.19, 2.18, 1.59, 7.18, repro,
2006-08-22,2.89, 14.32, -15.02, 2.17, 1.57, 7.07, repro,
2006-08-23,3.26, 13.24, -15.29, 2.17, 1.57, 7.05, repro,
2006-08-24,3.58, 12.36, -11.44, 2.16, 1.57, 7.06, repro,
2006-08-25,4.69, 14.94, -16.20, 2.20, 1.61, 7.24, repro,
2006-08-26,4.32, 12.62, -16.17, 2.23, 1.65, 7.41, repro,
2006-08-27,4.39, 14.50, -20.55, 2.24, 1.67, 7.45, repro,
2006-08-28,5.64, 13.53, -21.63, 2.26, 1.66, 7.44, repro,
2006-08-29,4.26, 13.74, -19.00, 2.25, 1.66, 7.48, repro,
2006-08-30,2.75, 14.38, -4.93, 2.25, 1.67, 7.49, repro,
2006-08-31,5.11, 13.58, -17.26, 2.23, 1.66, 7.43, repro,
2006-09-01,4.93, 14.70, -22.92, 2.25, 1.67, 7.52, repro,
2006-09-02,4.68, 15.25, -25.69, 2.27, 1.68, 7.50, repro,
2006-09-03,4.42, 15.00, -21.21, 2.28, 1.71, 7.51, repro,
2006-09-04,5.70, 15.08, -21.30, 2.29, 1.70, 7.61, repro,
2006-09-05,4.50, 14.55, -23.13, 2.28, 1.69, 7.59, repro,
2006-09-06,5.08, 13.95, -24.76, 2.26, 1.67, 7.46, repro,
2006-09-07,5.26, 14.87, -13.53, 2.26, 1.72, 7.68, repro,
2006-09-08,5.13, 15.42, -19.62, 2.26, 1.71, 7.61, repro,
2006-09-09,4.11, 14.42, -12.85, 2.21, 1.62, 7.25, repro,
2006-09-10,5.26, 13.88, -16.99, 2.21, 1.63, 7.32, repro,
2006-09-11,5.75, 14.51, -18.28, 2.21, 1.62, 7.27, repro,
2006-09-12,5.99, 14.98, -19.04, 2.21, 1.63, 7.29, repro,
2006-09-13,4.89, 15.53, -16.93, 2.20, 1.62, 7.21, repro,
2006-09-14,6.18, 15.83, -6.38, 2.35, 1.69, 7.63, repro,
2006-09-15,5.13, 14.78, -11.24, 2.25, 1.59, 7.29, repro,
2006-09-16,6.77, 13.57, -13.04, 2.18, 1.59, 7.16, repro,
2006-09-17,7.07, 13.90, -16.45, 2.18, 1.58, 7.11, repro,
2006-09-18,5.45, 14.39, -14.95, 2.17, 1.57, 7.08, repro,
2006-09-19,4.08, 15.62, -11.81, 2.22, 1.62, 7.29, repro,
2006-09-20,4.63, 15.07, -13.84, 2.17, 1.57, 7.08, repro,
2006-09-21,5.60, 13.99, -12.68, 2.22, 1.63, 7.29, repro,
2006-09-22,6.77, 12.98, -12.84, 2.27, 1.65, 7.41, repro,
2006-09-23,5.17, 14.63, -17.23, 2.22, 1.60, 7.19, repro,
2006-09-24,4.76, 14.87, -19.73, 2.23, 1.59, 7.17, repro,
2006-09-25,3.53, 15.74, -20.76, 2.26, 1.60, 7.38, repro,
2006-09-26,4.85, 15.38, -22.76, 2.17, 1.57, 7.10, repro,
2006-09-27,5.79, 14.91, -21.88, 2.23, 1.62, 7.27, repro,
2006-09-28,5.11, 14.27, -18.72, 2.27, 1.69, 7.43, repro,
2006-09-29,4.33, 14.23, -13.68, 2.20, 1.57, 7.10, repro,
2006-09-30,3.20, 15.42, -12.21, 2.20, 1.61, 7.23, repro,
2006-10-01,4.87, 14.39, -14.96, 2.24, 1.63, 7.29, repro,
2006-10-02,4.65, 15.30, -18.54, 2.25, 1.66, 7.35, repro,
2006-10-03,5.55, 15.46, -27.08, 2.27, 1.71, 7.53, repro,
2006-10-04,4.22, 15.75, -23.20, 2.21, 1.59, 7.18, repro,
2006-10-05,3.29, 16.87, -14.69, 2.22, 1.60, 7.24, repro,
2006-10-06,2.93, 15.20, -15.17, 2.20, 1.59, 7.23, repro,
2006-10-07,5.64, 15.00, -22.71, 2.24, 1.64, 7.33, repro,
2006-10-08,6.15, 15.24, -25.95, 2.24, 1.65, 7.38, repro,
2006-10-09,6.24, 15.96, -24.62, 2.24, 1.65, 7.36, repro,
2006-10-10,5.20, 15.43, -24.55, 2.22, 1.63, 7.34, repro,
2006-10-11,5.63, 15.29, -14.11, 2.26, 1.68, 7.50, repro,
2006-10-12,6.35, 15.50, -19.14, 2.19, 1.59, 7.16, repro,
2006-10-13,6.69, 14.75, -22.33, 2.14, 1.59, 7.09, repro,
2006-10-14,5.38, 15.75, -20.13, 2.21, 1.67, 7.45, repro,
2006-10-15,5.71, 15.70, -7.20, 2.20, 1.63, 7.23, repro,
2006-10-16,5.74, 15.26, -8.45, 2.16, 1.62, 7.20, repro,
2006-10-17,6.85, 15.47, -15.11, 2.20, 1.66, 7.41, repro,
2006-10-18,5.32, 15.07, -19.74, 2.14, 1.58, 7.04, repro,
2006-10-19,5.32, 13.05, -21.68, 2.28, 1.71, 7.59, repro,
2006-10-20,7.43, 15.81, -20.20, 2.42, 1.77, 8.10, repro,
2006-10-21,7.47, 14.37, -24.83, 2.36, 1.77, 7.75, repro,
2006-10-22,6.47, 15.82, -23.30, 2.20, 1.67, 7.36, repro,
2006-10-23,5.82, 16.22, -21.75, 2.24, 1.74, 7.67, repro,
2006-10-24,5.24, 15.45, -19.06, 2.26, 1.72, 7.61, repro,
2006-10-25,6.09, 15.88, -13.09, 2.28, 1.70, 7.50, repro,
2006-10-26,5.73, 15.05, -21.53, 2.28, 1.72, 7.51, repro,
2006-10-27,6.44, 14.64, -21.64, 2.23, 1.71, 7.45, repro,
2006-10-28,5.61, 15.14, -23.32, 2.30, 1.72, 7.63, repro,
2006-10-29,7.28, 15.21, -19.63, 2.18, 1.67, 7.38, repro,
2006-10-30,7.51, 15.03, -18.43, 2.12, 1.59, 7.10, repro,
2006-10-31,6.76, 16.26, -21.21, 2.20, 1.69, 7.43, repro,
2006-11-01,6.55, 15.89, -25.85, 2.34, 1.77, 7.76, repro,
2006-11-02,5.37, 17.70, -23.85, 2.14, 1.62, 7.12, repro,
2006-11-03,6.38, 16.81, -25.05, 2.24, 1.74, 7.54, repro,
2006-11-04,5.90, 16.65, -20.25, 2.29, 1.74, 7.65, repro,
2006-11-05,4.74, 15.79, -14.58, 2.22, 1.66, 7.37, repro,
2006-11-06,5.25, 15.37, -25.94, 2.14, 1.59, 7.10, repro,
2006-11-07,4.98, 16.40, -19.77, 2.29, 1.73, 7.47, repro,
2006-11-08,3.81, 16.02, -22.18, 2.24, 1.65, 7.24, repro,
2006-11-09,7.98, 15.47, -16.09, 2.28, 1.72, 7.45, repro,
2006-11-10,6.00, 15.96, -23.47, 2.18, 1.60, 7.16, repro,
2006-11-11,7.29, 16.44, -18.10, 2.27, 1.65, 7.38, repro,
2006-11-12,6.63, 14.14, -24.77, 2.30, 1.71, 7.52, repro,
2006-11-13,5.43, 15.38, -15.08, 2.22, 1.65, 7.27, repro,
2006-11-14,6.98, 15.83, -17.36, 2.13, 1.56, 7.01, repro,
2006-11-15,5.87, 14.57, -22.55, 2.10, 1.57, 7.04, repro,
2006-11-16,5.31, 15.70, -17.03, 2.13, 1.58, 7.14, repro,
2006-11-17,5.87, 15.63, -23.06, 2.13, 1.57, 7.06, repro,
2006-11-18,5.91, 14.78, -22.54, 2.13, 1.58, 7.07, repro,
2006-11-19,5.55, 14.83, -29.10, 2.12, 1.57, 7.05, repro,
2006-11-20,6.77, 17.20, -17.28, 2.11, 1.58, 7.08, repro,
2006-11-21,8.04, 17.68, -18.52, 2.11, 1.58, 7.12, repro,